CZ-4 DEB, 28075

Orbit data source: Space-Track

CZ-4 DEB, 28075 is space debris in SSO originally from a launch on Thu, 14 Oct 1999 UTC launched from the Taiyaun Space Center, China (TSC). Debris objects in space refer to the collection of defunct objects orbiting the Earth. Examples of debris include non-operational satellites, rocket bodies, and fragments generated from explosions, collisions, or faulty payload assembly.

Loading next visibility...
Identifier
28075, 1999-057NF
Orbit
SSO
Country
Flag of CNCN / PRC
Related business
Manufacturer
Unknown
Mission
Spacecraft
Bus & Motor
Unknown
Mass
Unknown
Launch date (UTC)
1999-10-14 (26 years ago)
Launch vehicle
Unknown
Launch site
Taiyaun Space Center, China (TSC)
Object type
Payload
Rocket body
Debris
Shape & HBR
Unknown shape, 0.1 m
Radar Cross Section
Small (<0.1 m²)

Expand to show TLE details & history
Last TLE update: 2 days ago

TLE from 2 days ago
0 CZ-4 DEB
1 28075U 99057NF  25347.88054347  .00001434  00000-0  41904-3 0  9995
2 28075  98.6464  44.8563 0096623  24.6151 335.9606 14.42951859707460
Epoch: 2025-12-13T21:07Z
TLE epoch observation values (Epoch: 2025-12-13T21:07:58.955Z)
Latitude
0.00003°
Longitude
5.05919°
Altitude
688.92 km
Speed
7.545 km/s
True Right ascension
02h 59m 25s
True Declination
0° 00' 00"
Sunlit
Object was in full shadow at epoch
Visualization orbit readout
Latitude
Unknown
Longitude
Unknown
Altitude
Unknown
Speed
Unknown
Apparent Right ascension
Unknown
Apparent Declination
Unknown
Sunlit
N/A
Visualization observer readout
Local Sidereal Time
13:22:50
Azimuth
Unknown
Elevation
Unknown
Doppler factor
Unknown
Orbital elements
Apogee altitude
814.721 km
Perigee altitude
677.052 km
Semi-major axis
7,124.024 km
Eccentricity
0.00966
Inclination
98.6464°
RAAN
44.8563°
Arg. of periapsis
24.6151°
True anomaly
335.50453°
Mean anomaly
335.9606°
Eccentric anomaly
335.73307°
Mean motion
3.60957 °/min
Orbital period
99.73 mins
BSTAR
0.00041904
Loading maneuver chart data...
Computing Atmospheric mass density...
Loading historical data...
Loading historical data...
Loading historical data...
Loading historical data...
Loading historical data...
Loading historical data...
Loading historical data...

Documentation

Showing up to 5 results
|